Wind_Speed
43 43 44 44 44 45 44 44 43 43 42 42 43 42 42 41 41 40 40 39 39 38 38 38 37 36 35 35 35 35 34 34 33 33 32 31 31 30 30 29 29 28 27
43 44 45 46 46 47 46 46 46 46 45 45 45 45 44 44 44 43 42 42 41 41 40 39 39 38 37 36 36 36 36 35 35 35 34 33 33 32 31 31 30 30 29
42 44 45 46 47 48 49 49 49 49 48 47 47 47 47 47 47 46 45 45 45 44 42 41 41 40 39 39 38 37 37 37 36 36 36 35 35 34 33 33 32 31 31
42 44 45 47 48 48 49 50 50 50 50 50 49 49 49 49 49 48 48 48 47 46 46 44 43 43 42 41 40 39 39 38 38 37 37 37 36 36 35 35 34 33 32
43 43 44 45 47 48 48 49 50 51 51 52 52 51 50 50 50 50 49 49 48 47 47 46 46 45 44 43 42 41 41 41 41 40 39 39 38 37 36 36 35 34 34
43 43 43 44 46 47 48 49 50 51 51 52 53 53 52 51 51 51 49 50 50 49 49 48 48 48 47 46 45 44 43 42 42 42 41 41 40 39 38 37 36 36 35
42 42 43 44 45 47 49 50 51 51 51 51 52 53 53 54 53 52 51 51 51 51 50 50 50 49 49 49 48 47 46 45 43 42 42 42 42 41 40 38 38 37 37
42 42 42 42 43 45 46 47 49 50 51 51 52 53 54 54 54 54 55 54 54 54 52 52 51 50 49 49 49 49 48 48 46 44 44 44 43 43 41 40 39 39 39
41 41 42 42 43 44 44 44 46 48 49 50 50 52 53 54 55 54 55 56 55 55 54 54 53 52 51 50 50 51 50 49 48 48 47 46 44 43 42 41 40 40 39
40 40 41 42 42 43 43 44 45 46 48 50 51 51 52 52 53 52 52 53 54 55 55 54 55 55 53 52 52 52 51 51 51 49 48 48 46 46 45 43 42 41 40
40 40 41 41 41 40 41 42 43 44 46 47 49 50 51 51 52 52 52 52 53 53 54 53 54 55 54 53 52 53 52 51 52 51 51 50 48 47 46 45 44 42 41
39 39 39 39 39 39 39 40 41 42 43 45 47 49 50 51 52 52 52 52 53 53 52 52 53 54 56 55 54 53 52 51 51 52 52 51 49 47 46 45 45 44 43
38 39 39 39 39 38 39 39 40 42 43 44 45 47 48 50 51 51 52 52 53 53 53 54 53 53 54 55 55 55 54 52 52 52 51 51 51 50 48 46 46 46 45
37 38 38 38 39 40 40 41 41 42 43 43 43 44 46 47 49 50 51 51 52 53 54 54 54 54 55 55 55 57 56 55 55 53 52 52 53 53 51 49 48 47 47
37 38 38 39 39 40 40 41 41 41 41 42 42 44 45 46 47 48 49 51 52 53 54 55 55 56 57 57 57 58 57 57 57 56 54 53 54 54 53 52 51 49 49
36 37 38 39 39 40 40 41 41 41 42 42 43 43 44 46 47 48 49 50 52 53 53 54 55 55 56 58 59 60 59 59 59 58 57 55 54 54 54 54 53 52 51
35 35 36 37 38 39 39 40 40 41 41 42 42 43 43 45 47 48 49 50 51 52 52 53 54 55 56 56 58 59 60 60 60 60 60 58 58 58 58 58 57 55 54
35 36 36 37 37 38 38 39 40 41 41 42 43 43 44 44 46 48 49 50 51 52 53 54 54 55 56 56 57 58 60 61 62 63 63 61 59 59 60 60 60 58 56
36 36 36 37 38 38 38 39 40 41 42 42 43 44 44 45 45 47 48 50 51 52 53 54 55 55 56 57 57 58 58 60 61 62 64 64 62 61 61 61 61 60 60
35 36 37 38 38 39 39 40 41 42 43 44 44 45 46 46 47 47 48 49 50 52 53 55 56 57 58 59 59 59 59 60 61 61 63 63 63 62 61 61 61 61 61
36 37 37 38 39 40 41 41 42 43 43 44 45 45 47 47 48 49 49 50 50 52 53 54 55 56 57 59 60 61 61 60 61 61 61 62 62 63 63 62 61 62 62
37 38 39 40 40 40 40 40 41 42 43 44 45 46 46 47 48 49 49 50 51 52 53 54 55 56 56 58 59 60 61 61 61 61 62 62 62 63 63 63 63 63 63
38 39 40 40 40 40 40 40 41 42 43 43 44 45 46 47 48 49 49 50 51 52 53 54 54 55 56 57 57 58 58 60 61 61 62 61 62 62 63 64 64 64 64
39 40 40 40 40 40 41 41 42 42 43 43 44 46 47 47 49 49 50 50 51 51 52 53 53 54 54 55 56 57 58 59 59 60 61 61 61 62 62 63 64 64 63
40 40 40 41 41 42 42 42 42 43 43 44 44 45 46 47 48 48 49 49 49 50 51 52 52 53 54 55 56 56 57 58 57 57 59 60 60 60 60 60 60 61 62
41 41 41 41 42 42 43 43 43 43 43 44 44 45 46 46 47 47 48 48 48 48 49 50 51 53 53 54 54 54 55 56 56 55 56 58 58 60 59 57 58 60 61
Wind_Direction
270 269 269 268 268 267 267 266 266 266 266 267 267 266 266 267 267 266 266 265 265 265 264 263 263 263 263 264 264 264 265 264 265 267 268 269 270 271 273 275 277 278 280
271 270 270 269 268 266 266 266 266 266 265 266 266 267 266 266 266 265 265 265 265 264 264 264 263 263 262 262 263 263 264 264 265 265 266 268 269 270 271 273 275 277 279
273 272 271 270 269 267 266 266 265 265 265 265 265 265 265 265 265 264 264 264 264 264 264 264 264 263 263 263 263 263 263 263 264 265 265 267 268 269 271 272 274 276 277
275 274 272 271 269 268 267 266 265 265 265 264 264 265 264 265 264 263 263 262 262 262 263 263 263 263 263 264 264 264 263 263 264 264 265 266 266 268 269 271 272 274 275
277 277 274 271 270 268 267 266 265 264 264 264 263 263 263 263 262 261 261 261 261 262 262 261 261 262 262 263 263 264 264 263 263 263 265 266 266 266 268 270 270 272 273
278 277 277 274 272 269 268 267 266 265 264 264 263 262 262 262 261 260 260 260 260 260 261 261 262 261 262 262 262 263 263 262 262 263 264 265 266 266 267 268 269 270 272
278 278 278 276 274 271 269 267 266 266 265 264 263 262 260 260 260 260 260 260 260 260 260 260 261 260 261 261 261 261 261 261 261 261 262 262 263 265 266 267 268 268 270
279 279 278 277 275 273 271 269 267 266 265 265 264 262 261 260 260 261 260 260 260 260 259 259 259 260 260 260 260 260 261 261 259 259 261 261 262 263 263 265 267 267 268
280 278 278 278 276 275 273 271 269 267 266 265 265 263 262 261 261 262 261 261 260 259 260 260 260 260 259 259 260 260 261 260 259 259 259 260 262 262 262 263 265 266 266
282 281 280 279 278 276 275 273 271 269 268 266 266 264 264 263 262 260 260 261 260 260 260 260 259 259 258 259 259 259 260 259 259 259 259 258 259 261 261 262 263 263 264
284 283 281 280 280 278 276 274 273 272 271 269 267 266 265 265 263 262 260 259 261 261 261 260 260 258 258 259 260 260 260 260 259 259 259 258 258 259 260 260 261 262 262
286 285 283 281 280 280 277 276 274 275 274 272 270 267 266 265 265 265 263 261 261 260 261 261 260 259 258 259 259 259 259 259 259 258 259 258 257 258 260 260 260 260 260
288 287 286 284 282 280 279 278 277 276 276 275 273 270 268 266 265 265 264 263 262 261 261 262 261 260 259 259 258 257 258 258 258 258 258 256 256 257 258 259 258 258 258
289 288 287 286 284 282 281 280 279 278 277 276 274 272 270 268 267 266 265 264 263 262 261 261 261 261 261 260 259 258 258 257 257 258 257 257 256 255 256 255 256 258 259
290 289 288 287 286 285 283 282 281 280 278 276 274 273 271 270 268 268 267 266 265 263 262 261 261 261 261 260 260 259 259 258 258 258 257 258 257 255 254 255 256 257 257
294 292 291 290 288 286 284 283 281 280 279 277 275 274 273 272 271 269 269 268 267 266 264 263 262 260 260 259 259 259 259 259 258 258 258 259 257 256 255 255 256 257 257
296 295 295 293 291 289 286 285 283 281 280 279 277 276 276 275 273 272 271 270 269 268 267 265 263 262 260 259 258 259 258 259 258 257 258 258 258 258 256 256 256 257 257
297 297 296 295 294 292 290 287 286 284 282 281 279 279 278 278 276 274 272 271 270 269 267 265 264 263 262 262 260 259 258 258 257 257 257 257 258 258 258 256 256 257 256
298 299 298 297 296 294 292 291 289 286 284 282 281 279 279 279 278 276 274 272 270 269 268 267 265 265 264 263 262 261 260 259 257 257 257 256 256 257 258 257 256 256 255
299 300 299 298 297 295 294 292 291 289 286 283 282 281 280 280 279 277 276 275 273 272 270 269 267 266 265 264 263 263 262 261 260 259 258 257 256 256 256 256 256 256 255
300 301 300 299 299 297 296 294 292 290 288 286 284 283 282 281 281 280 278 277 275 274 272 270 269 268 267 265 263 263 262 261 260 260 258 257 256 256 255 255 255 255 255
301 301 301 301 300 299 298 297 294 292 289 287 286 286 285 283 282 281 280 279 277 276 274 272 271 269 268 267 265 264 262 261 261 259 258 258 256 256 255 255 255 254 253
302 302 302 302 301 300 300 298 297 295 293 291 289 288 286 285 284 282 281 280 279 277 275 273 272 271 270 268 267 265 263 262 262 260 259 258 257 256 256 255 254 254 253
303 303 303 303 302 302 301 300 299 297 296 294 292 291 289 288 286 285 283 282 280 278 276 275 273 272 270 268 267 266 264 263 262 260 260 258 257 257 257 255 254 253 252
304 305 304 304 303 303 302 302 301 300 299 297 296 294 293 291 289 287 286 284 282 280 278 276 274 272 271 270 269 267 265 264 262 260 260 259 257 257 255 255 254 253 252
305 304 304 304 304 304 303 303 302 301 301 300 299 297 296 294 292 290 289 288 286 283 280 278 276 275 274 272 270 269 267 266 263 262 261 261 258 256 254 253 254 252 251
Height
5793 5793 5794 5794 5795 5795 5796 5797 5798 5799 5800 5800 5801 5802 5803 5804 5805 5806 5807 5807 5808 5809 5810 5810 5811 5812 5813 5814 5815 5815 5816 5817 5818 5818 5819 5819 5819 5820 5820 5820 5820 5820 5820
5783 5783 5783 5784 5784 5784 5785 5786 5787 5788 5789 5790 5791 5792 5793 5794 5795 5796 5797 5798 5799 5800 5801 5802 5803 5804 5805 5806 5806 5807 5808 5809 5810 5810 5811 5812 5812 5813 5813 5813 5813 5814 5813
5773 5772 5772 5772 5772 5773 5774 5775 5776 5777 5778 5779 5780 5781 5782 5783 5784 5786 5787 5788 5789 5790 5792 5793 5794 5795 5796 5797 5798 5799 5800 5801 5802 5802 5803 5804 5805 5805 5806 5806 5806 5807 5807
5762 5762 5761 5761 5760 5760 5761 5762 5763 5765 5766 5767 5768 5769 5770 5771 5773 5774 5775 5777 5778 5780 5781 5783 5784 5785 5786 5787 5789 5790 5791 5792 5793 5794 5794 5795 5796 5797 5798 5798 5799 5799 5799
5752 5751 5750 5749 5749 5748 5749 5750 5751 5752 5753 5754 5756 5757 5758 5759 5760 5762 5763 5765 5767 5768 5770 5771 5773 5775 5776 5777 5779 5780 5781 5782 5783 5784 5785 5787 5788 5788 5789 5790 5791 5791 5792
5741 5740 5739 5738 5737 5737 5737 5737 5738 5739 5740 5741 5742 5744 5745 5746 5748 5749 5751 5753 5754 5756 5758 5760 5761 5763 5765 5766 5768 5769 5771 5772 5773 5775 5776 5777 5778 5779 5780 5781 5782 5783 5783
5731 5729 5728 5727 5725 5725 5725 5725 5725 5726 5727 5727 5728 5730 5732 5733 5735 5737 5738 5740 5742 5744 5746 5748 5749 5751 5753 5755 5757 5758 5760 5761 5762 5764 5766 5767 5768 5770 5771 5772 5773 5774 5775
5721 5719 5717 5716 5714 5713 5713 5713 5713 5713 5714 5714 5714 5715 5718 5721 5721 5723 5725 5727 5729 5730 5732 5735 5736 5738 5741 5742 5744 5746 5748 5750 5751 5753 5755 5756 5758 5759 5761 5762 5763 5764 5766
5711 5709 5707 5706 5704 5703 5702 5701 5701 5701 5701 5701 5701 5702 5703 5707 5709 5710 5711 5713 5715 5717 5719 5721 5723 5725 5728 5729 5731 5733 5736 5738 5739 5742 5743 5745 5747 5748 5750 5751 5753 5754 5756
5701 5699 5697 5695 5694 5692 5691 5690 5689 5689 5689 5689 5689 5689 5690 5691 5693 5697 5699 5699 5701 5703 5705 5707 5709 5712 5714 5716 5718 5721 5722 5725 5727 5729 5731 5733 5735 5737 5739 5740 5742 5744 5745
5692 5689 5687 5685 5683 5682 5680 5679 5678 5677 5677 5677 5677 5677 5677 5678 5679 5681 5685 5687 5687 5689 5691 5693 5695 5697 5700 5702 5705 5707 5709 5711 5713 5716 5718 5720 5723 5725 5727 5728 5730 5732 5734
5682 5679 5677 5675 5673 5672 5670 5669 5668 5667 5666 5665 5665 5665 5665 5666 5666 5667 5669 5672 5674 5675 5676 5678 5681 5683 5686 5688 5690 5693 5695 5697 5699 5702 5704 5707 5710 5712 5714 5716 5719 5721 5723
5672 5670 5667 5665 5663 5662 5660 5659 5658 5657 5655 5654 5653 5653 5653 5653 5653 5654 5655 5657 5659 5661 5663 5665 5667 5669 5671 5673 5676 5679 5681 5683 5685 5687 5690 5693 5696 5698 5701 5704 5706 5708 5710
5664 5660 5658 5655 5653 5651 5650 5649 5647 5646 5644 5643 5642 5641 5641 5641 5641 5641 5642 5643 5644 5647 5649 5652 5653 5655 5656 5658 5661 5663 5666 5669 5671 5673 5676 5678 5681 5684 5687 5690 5693 5695 5697
5654 5651 5648 5646 5644 5642 5640 5638 5637 5635 5633 5632 5631 5630 5630 5629 5629 5629 5629 5629 5630 5632 5636 5638 5639 5640 5640 5642 5645 5648 5651 5654 5656 5658 5661 5664 5667 5669 5672 5675 5678 5681 5683
5645 5642 5639 5636 5634 5631 5629 5628 5626 5624 5622 5621 5620 5619 5618 5617 5617 5616 5616 5616 5616 5617 5620 5623 5624 5624 5625 5626 5629 5631 5634 5637 5640 5643 5646 5648 5651 5654 5657 5660 5663 5666 5669
5637 5633 5630 5627 5624 5621 5619 5617 5615 5613 5611 5610 5608 5607 5606 5605 5604 5603 5603 5603 5603 5603 5604 5607 5608 5608 5609 5611 5613 5615 5618 5621 5623 5627 5629 5632 5635 5638 5641 5644 5647 5651 5654
5628 5624 5621 5618 5614 5612 5609 5606 5604 5602 5600 5598 5597 5595 5594 5592 5591 5590 5589 5589 5588 5588 5589 5591 5592 5592 5593 5595 5596 5598 5601 5603 5606 5609 5612 5615 5618 5621 5624 5628 5631 5634 5638
5619 5616 5612 5609 5605 5602 5599 5596 5593 5591 5588 5586 5585 5583 5581 5580 5578 5576 5575 5574 5574 5573 5573 5573 5575 5576 5577 5578 5579 5581 5583 5585 5588 5590 5593 5596 5600 5603 5606 5609 5613 5617 5621
5611 5607 5603 5599 5596 5592 5588 5585 5582 5579 5577 5574 5572 5570 5568 5566 5565 5563 5561 5560 5558 5557 5556 5556 5557 5558 5559 5560 5561 5563 5565 5567 5569 5572 5574 5577 5580 5584 5587 5591 5595 5599 5603
5602 5598 5594 5590 5586 5581 5578 5574 5570 5567 5564 5562 5559 5557 5555 5553 5551 5549 5547 5545 5543 5541 5540 5540 5540 5540 5541 5541 5543 5544 5546 5548 5550 5552 5555 5558 5561 5565 5568 5571 5575 5579 5584
5593 5589 5585 5580 5575 5571 5566 5562 5559 5555 5552 5549 5546 5544 5541 5539 5536 5534 5532 5529 5527 5525 5523 5523 5522 5522 5523 5523 5523 5524 5526 5529 5533 5535 5535 5539 5541 5544 5548 5552 5556 5560 5564
5584 5580 5575 5570 5565 5561 5556 5552 5548 5544 5540 5537 5534 5531 5528 5524 5522 5519 5517 5514 5511 5508 5506 5505 5505 5504 5504 5505 5505 5506 5507 5508 5511 5514 5515 5519 5521 5525 5528 5532 5535 5539 5544
5575 5570 5565 5560 5555 5551 5546 5541 5537 5533 5529 5525 5521 5518 5514 5510 5507 5504 5502 5499 5495 5492 5490 5488 5488 5487 5486 5485 5486 5486 5487 5489 5492 5493 5494 5498 5501 5504 5507 5510 5514 5518 5522
5565 5560 5555 5550 5545 5540 5535 5531 5526 5522 5517 5512 5508 5504 5501 5497 5493 5489 5486 5484 5480 5477 5474 5471 5470 5469 5468 5467 5466 5467 5468 5469 5472 5474 5474 5476 5480 5483 5486 5489 5492 5496 5501
5554 5549 5544 5540 5535 5530 5525 5520 5515 5511 5506 5501 5496 5491 5487 5483 5479 5474 5471 5468 5465 5462 5459 5456 5454 5452 5450 5449 5448 5448 5448 5449 5451 5454 5455 5456 5459 5461 5466 5471 5472 5476 5480